Temp
25 26 26 27 28 29 28 28 28 28 27 27 27 28 28 26 25 26 25 24 23 22 22 21 20 19 18 18 19 19 19 18 18 17 16 16 17 16 15 15 14 13 12 12
25 26 28 27 27 26 27 27 27 27 27 26 28 27 28 27 26 26 25 25 24 23 21 21 20 19 19 18 18 17 17 17 17 16 15 15 15 14 14 13 13 12 12 11
26 27 26 26 25 26 27 27 27 27 26 26 27 27 27 27 26 25 25 25 24 23 22 21 20 19 19 18 18 16 17 17 17 17 15 14 13 14 14 14 13 12 11 10
26 26 25 26 26 27 26 27 26 26 26 26 26 26 27 27 26 26 25 24 24 23 22 22 21 20 19 18 16 17 17 17 17 17 14 14 13 12 12 11 11 10 8 8
26 26 25 25 26 26 26 26 26 25 25 25 26 25 27 27 26 26 25 24 24 23 22 22 21 21 18 16 16 17 17 16 15 14 14 13 13 11 10 9 8 7 7 7
26 24 26 26 25 26 25 24 25 25 25 24 26 26 27 27 26 27 25 24 23 23 22 22 21 18 16 15 14 15 15 14 14 13 13 13 12 11 10 7 6 6 6 5
25 25 25 25 25 25 25 24 24 24 24 24 24 24 27 25 25 24 25 23 22 22 22 21 19 18 16 14 13 13 13 13 13 13 13 12 11 10 6 5 5 3 2 2
24 23 25 26 26 25 25 25 22 20 23 25 23 23 25 24 23 23 23 23 22 22 22 21 19 17 15 13 12 11 12 13 13 12 12 10 7 5 4 3 3 1 1 1
24 24 26 25 26 26 25 23 25 23 23 23 26 25 25 25 24 23 23 23 22 22 20 18 16 14 13 12 11 12 13 12 11 10 8 6 5 4 2 2 2 1 1 2
25 23 25 24 24 24 25 25 23 23 20 21 25 23 24 24 24 24 24 23 22 20 18 16 15 13 12 11 10 11 12 11 8 6 5 4 3 2 1 1 2 2 2 2
25 24 24 24 24 25 23 24 24 24 23 21 21 24 25 25 25 25 24 24 22 19 17 15 14 12 11 10 9 9 9 7 5 4 3 2 2 1 2 1 1 2 2 2
25 24 23 24 25 25 26 25 25 23 22 21 22 22 25 25 24 23 24 22 21 19 16 14 13 12 11 9 8 7 5 4 3 2 2 1 1 1 2 1 2 2 2 2
23 23 22 23 23 23 23 24 25 24 23 22 19 21 24 22 22 22 22 20 18 16 15 14 12 11 9 8 6 5 4 2 1 1 0 0 0 2 2 2 3 2 3 2
19 22 22 21 24 26 23 24 24 23 23 22 23 23 24 23 22 20 19 18 17 15 14 12 11 9 8 6 4 3 2 1 0 1 0 0 1 1 1 2 2 2 2 2
17 19 22 24 25 25 24 24 24 23 24 23 23 23 23 23 22 19 18 17 16 14 12 11 9 8 6 4 3 2 0 0 0 -0 -0 1 1 1 2 2 2 2 2 2
16 17 18 18 22 23 23 24 24 24 24 23 23 22 23 19 18 17 17 16 15 13 11 9 8 6 4 2 1 0 -0 -0 -0 -0 0 1 1 2 2 2 1 2 2 2
17 18 16 15 17 21 21 23 23 23 23 23 22 23 20 19 18 17 16 15 13 11 9 8 6 4 2 1 -0 -1 -1 -1 -0 0 0 1 1 1 1 2 2 2 2 2
17 17 18 18 19 18 22 22 23 21 22 23 22 21 20 19 16 15 15 13 11 9 8 6 4 2 1 -0 -1 -1 -0 0 0 0 0 0 1 0 2 2 2 2 2 3
16 17 18 18 19 21 19 20 20 20 21 22 21 20 18 15 14 12 11 10 9 7 6 4 3 1 0 -0 -1 0 0 0 1 1 1 -0 0 1 2 2 2 2 2 3
16 16 16 18 15 16 22 22 20 21 20 20 20 20 17 16 19 15 10 8 7 6 5 3 2 1 -0 -0 0 0 -0 0 1 -0 0 1 1 1 1 2 2 2 2 2
15 15 16 17 16 18 18 19 19 18 19 19 19 18 17 18 16 11 8 7 6 5 4 2 2 -0 0 0 0 0 0 0 -0 1 1 1 2 1 1 1 1 1 2 3
16 15 12 13 12 13 15 17 17 16 17 18 18 18 16 13 11 10 8 7 6 5 4 3 2 -0 -0 0 1 1 1 0 1 1 2 2 1 1 1 1 2 2 2 3
14 15 13 13 13 15 13 13 13 13 15 17 17 16 14 12 11 9 8 7 5 4 4 3 2 1 1 1 1 2 1 1 2 2 2 2 2 1 1 2 1 1 2 2
16 15 15 14 16 15 15 12 12 15 13 16 16 14 14 12 11 9 8 6 6 4 4 3 3 2 2 2 2 2 2 1 2 2 2 2 2 1 1 1 1 0 -0 0
16 15 15 16 16 14 13 13 12 14 14 15 14 14 13 12 11 9 8 6 5 4 4 3 3 3 2 2 2 2 2 1 2 2 2 2 3 3 3 2 1 -0 -1 0
16 16 16 16 14 15 13 14 13 14 15 14 14 13 12 12 10 9 7 6 5 4 3 3 3 3 2 2 2 2 2 2 2 2 3 3 3 3 3 3 2 1 0 -0
Height
1518 1514 1512 1506 1507 1502 1504 1509 1512 1510 1515 1520 1517 1517 1518 1525 1529 1530 1533 1535 1538 1539 1543 1546 1547 1548 1548 1548 1548 1549 1548 1547 1546 1545 1545 1544 1541 1539 1537 1534 1530 1526 1522 1518
1517 1512 1503 1507 1510 1511 1509 1512 1512 1515 1517 1519 1512 1512 1511 1520 1523 1524 1527 1529 1532 1537 1540 1541 1543 1545 1545 1547 1547 1547 1546 1544 1543 1541 1540 1538 1535 1533 1531 1527 1524 1520 1515 1511
1508 1503 1510 1512 1512 1512 1509 1510 1508 1512 1516 1515 1512 1513 1510 1515 1519 1522 1523 1525 1528 1532 1535 1538 1541 1543 1545 1545 1545 1544 1541 1540 1538 1537 1535 1533 1531 1528 1526 1523 1519 1514 1507 1501
1506 1507 1510 1510 1510 1508 1512 1508 1510 1514 1516 1517 1511 1516 1501 1506 1514 1517 1519 1522 1524 1527 1531 1534 1538 1541 1542 1543 1539 1538 1537 1536 1534 1533 1531 1528 1526 1523 1520 1514 1510 1503 1497 1490
1503 1506 1509 1510 1507 1508 1508 1511 1513 1514 1514 1514 1511 1520 1498 1501 1509 1509 1513 1517 1518 1522 1527 1531 1535 1538 1538 1537 1535 1534 1533 1532 1531 1530 1528 1525 1521 1517 1512 1506 1498 1492 1486 1481
1502 1507 1506 1504 1509 1510 1514 1516 1516 1516 1512 1526 1508 1510 1496 1492 1501 1500 1508 1514 1516 1518 1522 1528 1532 1535 1536 1535 1533 1532 1531 1530 1529 1527 1524 1520 1515 1508 1501 1495 1488 1483 1478 1471
1503 1502 1504 1507 1510 1513 1511 1516 1523 1524 1521 1519 1512 1517 1495 1499 1504 1508 1509 1513 1515 1518 1522 1526 1532 1534 1534 1533 1533 1532 1530 1529 1526 1523 1518 1513 1506 1499 1492 1486 1480 1472 1465 1460
1504 1511 1500 1501 1500 1504 1507 1507 1524 1546 1521 1505 1513 1516 1498 1503 1507 1508 1509 1512 1515 1518 1521 1526 1530 1532 1532 1531 1530 1530 1528 1526 1522 1517 1512 1505 1498 1492 1485 1479 1471 1465 1459 1454
1503 1500 1495 1498 1499 1501 1506 1515 1504 1516 1518 1522 1496 1500 1498 1501 1504 1506 1508 1511 1514 1518 1523 1527 1529 1530 1531 1530 1528 1527 1525 1521 1516 1510 1504 1498 1491 1485 1479 1473 1467 1462 1455 1449
1493 1505 1495 1501 1501 1503 1502 1498 1516 1514 1539 1527 1497 1507 1503 1501 1500 1503 1506 1509 1513 1518 1524 1527 1528 1529 1530 1529 1527 1524 1521 1516 1511 1504 1498 1492 1486 1481 1474 1469 1462 1456 1449 1442
1492 1499 1499 1500 1498 1491 1504 1502 1501 1501 1507 1527 1526 1502 1492 1495 1497 1499 1502 1505 1510 1519 1524 1526 1528 1529 1528 1527 1525 1520 1516 1511 1506 1500 1494 1488 1482 1476 1469 1464 1458 1450 1443 1436
1490 1492 1497 1492 1488 1490 1485 1488 1492 1504 1513 1513 1514 1512 1492 1495 1498 1501 1501 1505 1511 1518 1524 1526 1527 1528 1527 1524 1521 1517 1512 1508 1502 1496 1490 1483 1477 1472 1465 1459 1452 1445 1438 1432
1492 1492 1498 1491 1495 1494 1492 1490 1489 1491 1497 1504 1522 1511 1493 1498 1500 1502 1504 1508 1515 1520 1524 1526 1526 1526 1524 1521 1517 1513 1509 1503 1497 1490 1485 1480 1474 1468 1462 1456 1449 1442 1435 1428
1497 1488 1488 1497 1479 1471 1488 1486 1486 1491 1497 1498 1495 1497 1490 1495 1498 1505 1508 1513 1517 1521 1524 1525 1525 1524 1522 1518 1514 1509 1504 1498 1492 1486 1481 1476 1471 1465 1460 1453 1447 1440 1433 1425
1495 1503 1487 1479 1473 1472 1474 1478 1480 1486 1485 1492 1488 1489 1488 1492 1499 1505 1510 1514 1518 1521 1523 1524 1524 1523 1520 1515 1510 1505 1499 1494 1489 1484 1479 1474 1469 1465 1459 1453 1446 1440 1432 1425
1499 1502 1501 1499 1483 1477 1475 1473 1472 1478 1477 1483 1486 1491 1488 1500 1504 1508 1512 1515 1519 1522 1524 1524 1523 1520 1516 1511 1505 1501 1496 1491 1487 1482 1478 1473 1469 1464 1458 1453 1446 1441 1433 1425
1498 1495 1507 1511 1500 1489 1480 1469 1474 1473 1476 1479 1487 1483 1492 1499 1503 1508 1512 1516 1520 1523 1524 1523 1521 1517 1512 1508 1504 1499 1495 1491 1486 1482 1478 1473 1469 1464 1460 1454 1448 1442 1434 1427
1496 1499 1493 1493 1487 1499 1467 1467 1469 1477 1475 1476 1481 1488 1491 1498 1508 1512 1514 1517 1521 1522 1522 1521 1518 1514 1510 1507 1503 1499 1495 1491 1487 1484 1479 1475 1470 1467 1461 1456 1450 1444 1437 1430
1494 1495 1491 1488 1480 1468 1475 1474 1476 1477 1475 1476 1479 1486 1494 1505 1509 1515 1517 1519 1520 1520 1520 1518 1515 1513 1511 1507 1503 1500 1496 1493 1489 1486 1481 1477 1474 1470 1464 1459 1453 1446 1441 1435
1491 1491 1493 1483 1500 1490 1459 1461 1472 1474 1477 1477 1480 1484 1494 1499 1495 1509 1516 1519 1520 1520 1518 1517 1515 1515 1512 1508 1505 1502 1498 1495 1492 1489 1485 1481 1476 1472 1467 1463 1457 1451 1446 1440
1489 1489 1485 1481 1486 1476 1473 1471 1474 1485 1480 1475 1480 1486 1493 1495 1500 1510 1515 1518 1519 1519 1518 1518 1517 1514 1512 1510 1508 1505 1503 1499 1495 1492 1489 1484 1480 1475 1470 1465 1460 1455 1451 1444
1484 1488 1497 1493 1498 1496 1481 1480 1480 1484 1479 1478 1483 1488 1494 1502 1506 1511 1516 1518 1519 1520 1519 1519 1518 1516 1515 1514 1514 1511 1506 1502 1498 1495 1491 1487 1482 1477 1473 1468 1463 1459 1454 1449
1488 1481 1489 1491 1488 1480 1484 1485 1485 1482 1481 1483 1485 1491 1497 1502 1507 1513 1516 1517 1519 1519 1519 1520 1519 1519 1518 1517 1515 1513 1508 1503 1499 1496 1492 1489 1484 1480 1475 1471 1466 1462 1457 1452
1477 1481 1481 1484 1475 1479 1481 1484 1484 1483 1488 1486 1489 1493 1497 1502 1508 1513 1515 1517 1519 1520 1521 1521 1521 1521 1520 1519 1517 1514 1510 1505 1502 1497 1494 1490 1487 1482 1478 1474 1470 1465 1459 1455
1475 1479 1477 1475 1475 1478 1480 1482 1484 1485 1487 1489 1492 1494 1498 1504 1509 1513 1515 1517 1519 1521 1521 1522 1523 1522 1521 1520 1518 1516 1511 1508 1504 1500 1497 1492 1489 1485 1481 1476 1472 1469 1463 1459
1472 1472 1472 1471 1475 1475 1479 1480 1482 1483 1486 1490 1491 1497 1501 1505 1509 1512 1516 1517 1519 1521 1522 1523 1523 1523 1522 1521 1519 1517 1512 1509 1506 1503 1499 1495 1491 1488 1484 1481 1476 1472 1469 1465
Wind_Speed
7 9 12 14 15 11 6 10 12 8 5 15 18 18 12 20 24 22 23 24 25 26 22 19 17 16 15 14 14 14 15 17 19 19 17 19 21 22 22 21 22 23 24 26
7 11 6 3 7 10 11 12 11 6 6 11 14 17 14 18 25 27 26 25 26 23 23 22 20 17 17 15 15 15 19 20 23 21 18 23 25 23 23 25 25 25 25 28
11 6 6 10 10 11 11 11 9 10 7 10 7 14 15 15 21 23 24 24 23 24 25 24 21 18 16 15 14 14 19 22 23 26 21 17 17 20 23 27 29 32 31 36
9 7 8 11 13 12 11 6 5 7 10 12 9 13 19 16 17 20 23 24 24 25 25 23 21 17 14 12 14 17 17 18 20 21 15 19 22 22 25 34 33 36 35 34
4 9 10 12 12 10 2 5 5 5 9 7 10 8 11 13 15 17 21 22 24 26 25 23 18 15 10 6 8 13 14 14 13 15 18 23 27 29 31 33 36 35 35 29
9 1 5 8 5 5 10 7 6 6 8 10 13 10 9 10 9 6 6 13 15 16 19 18 11 7 5 2 2 7 8 11 14 18 24 30 35 39 40 36 34 32 30 30
11 13 7 8 9 7 11 8 6 7 7 5 4 6 12 2 1 2 6 8 9 10 14 14 10 8 4 3 1 3 8 12 20 26 31 36 38 39 33 32 30 32 29 26
9 13 15 12 14 10 15 8 2 4 3 3 6 6 4 2 3 4 6 8 9 10 10 9 8 7 5 2 2 6 12 19 25 31 34 34 33 28 29 26 28 27 27 26
6 7 5 5 7 11 8 10 4 6 5 8 5 4 9 7 6 8 12 12 12 10 8 9 8 7 5 2 5 11 19 24 29 32 31 31 29 27 24 26 26 25 28 31
4 4 6 7 8 5 11 10 6 7 4 8 4 4 7 7 7 9 12 13 13 11 11 10 8 6 3 3 8 15 22 26 27 28 28 26 25 22 24 24 27 29 31 33
14 8 6 7 11 12 7 11 7 4 3 4 5 4 4 6 3 7 11 12 14 12 11 10 8 4 3 6 11 17 22 25 24 25 25 23 22 23 24 26 27 32 32 32
16 8 13 16 3 6 11 12 14 8 8 6 7 8 3 5 6 5 7 4 8 11 11 10 6 3 5 10 15 18 22 21 21 22 22 21 22 23 24 26 29 30 31 31
5 9 12 14 6 6 11 14 13 11 6 9 6 5 4 3 3 2 3 8 11 12 11 7 4 5 9 12 15 18 19 20 22 21 20 21 22 24 26 27 27 28 29 29
5 11 12 12 15 11 18 17 17 16 11 11 11 14 9 7 6 4 8 12 14 11 8 5 5 8 10 13 16 18 20 22 21 21 21 21 22 23 25 25 25 27 28 28
5 9 13 17 17 14 13 17 18 18 17 14 11 9 8 1 3 8 11 13 12 10 7 6 7 9 12 15 18 19 20 21 22 21 20 21 20 21 22 24 25 27 26 25
1 9 16 20 22 17 17 17 16 18 15 9 14 10 7 4 9 12 13 11 10 8 6 6 8 11 14 18 20 20 21 22 21 20 19 18 19 19 23 24 24 25 25 25
2 7 8 12 16 26 17 15 16 15 10 12 12 7 10 10 11 12 12 10 9 7 6 7 10 12 15 17 18 19 20 19 19 17 16 18 19 22 23 24 23 24 26 26
3 4 6 11 12 18 3 4 13 13 10 10 6 3 6 12 13 10 10 11 9 7 7 8 10 13 15 16 17 18 18 17 15 16 20 21 23 20 23 25 24 22 27 29
6 4 5 8 13 14 5 5 7 12 13 11 9 7 16 19 19 13 11 11 10 8 7 9 11 13 13 14 15 16 16 15 17 20 21 20 19 18 23 28 29 27 24 27
7 6 6 8 6 16 17 11 9 7 8 14 12 16 21 21 10 10 13 10 9 8 8 8 11 11 12 14 16 17 19 20 19 17 21 19 16 16 20 22 19 26 28 25
9 8 12 10 13 10 6 6 10 10 2 12 15 19 20 8 10 22 16 11 9 7 7 8 9 10 14 18 18 18 16 16 16 17 17 16 16 17 19 19 19 21 20 23
5 4 3 5 6 10 6 5 8 5 2 14 16 18 16 19 21 19 14 11 8 7 7 8 8 11 10 10 12 14 16 16 15 15 15 16 17 18 18 20 21 21 21 21
5 5 4 7 5 4 3 6 5 8 6 10 19 18 21 21 19 17 14 11 8 7 8 8 9 10 9 9 11 14 16 16 17 15 15 15 17 16 18 20 21 22 22 21
7 8 5 5 8 10 9 3 6 5 4 11 19 22 21 21 18 16 13 10 8 7 9 10 10 9 8 8 10 13 15 16 16 17 16 16 16 17 17 17 20 21 23 22
3 8 5 9 9 7 10 9 14 12 16 19 21 20 20 20 17 14 12 11 9 10 11 10 9 7 6 6 9 12 14 15 16 16 17 17 17 17 17 15 19 20 26 26
10 8 7 6 9 3 2 8 9 15 21 23 23 21 18 17 16 14 11 10 10 12 11 9 7 6 5 6 8 11 13 13 16 16 16 18 17 17 16 15 14 19 23 25
Wind_Direction
194 227 211 202 216 263 244 225 204 196 159 210 227 221 188 198 206 209 207 212 216 220 221 220 221 223 230 238 253 267 274 280 284 287 288 291 293 293 290 292 291 292 294 296
205 230 186 164 197 213 209 210 202 145 179 220 223 231 215 194 212 214 215 217 221 222 221 220 222 224 234 246 259 268 272 276 278 282 285 287 287 285 284 287 292 294 296 295
257 83 146 193 183 199 206 220 212 244 169 221 251 229 203 219 218 222 228 230 229 226 222 221 224 229 241 254 266 270 270 276 278 280 294 298 296 296 294 292 289 292 291 294
247 129 201 204 205 219 203 215 232 213 222 245 210 260 193 203 215 220 226 232 234 230 229 228 229 236 251 257 253 269 276 279 282 289 293 297 303 300 293 297 296 291 295 293
170 204 204 208 214 207 48 167 220 235 246 291 213 252 269 186 217 221 226 236 238 235 229 228 228 240 232 243 256 274 279 285 290 298 301 303 301 299 300 299 297 297 301 297
260 158 234 239 108 219 136 171 196 230 246 239 240 237 254 200 223 220 223 239 241 233 222 218 216 207 196 179 261 274 287 293 301 303 303 305 306 306 305 305 305 305 298 298
206 208 173 182 165 162 203 201 231 221 203 245 103 239 270 103 207 276 196 198 187 187 191 196 204 200 179 143 90 358 299 308 308 310 311 311 310 311 313 309 309 305 309 307
220 195 199 186 224 204 208 237 210 269 208 131 173 242 122 143 194 211 202 180 174 185 191 195 201 186 168 123 6 332 320 315 314 314 314 316 316 314 313 311 313 312 309 308
215 224 127 200 203 235 171 228 304 248 259 269 252 172 222 193 196 195 193 192 194 194 183 179 165 148 138 74 325 318 318 320 318 319 320 320 319 317 317 317 315 312 310 310
216 247 206 157 170 187 240 137 189 215 254 264 178 266 281 170 185 189 201 202 197 177 178 166 151 140 117 15 343 326 323 322 323 322 322 321 321 318 318 317 318 319 318 318
237 244 169 174 213 203 175 211 222 287 281 257 296 296 112 198 225 208 216 206 190 187 174 161 147 125 47 2 340 329 327 327 326 325 324 324 323 321 321 326 323 326 325 324
222 233 243 222 103 312 247 232 202 220 203 217 275 272 150 214 256 242 262 194 167 171 161 150 134 87 11 350 338 335 331 330 329 327 325 325 324 328 330 328 329 332 329 329
177 217 231 225 200 203 230 224 233 239 267 246 203 265 138 167 216 212 229 149 153 153 146 128 92 27 0 347 339 336 334 331 331 330 330 330 332 335 337 334 339 336 337 335
338 268 232 240 248 237 205 232 219 218 242 239 245 256 258 190 223 146 136 145 145 141 126 100 43 9 352 345 340 339 336 335 337 338 337 337 341 344 339 343 346 347 343 341
101 289 285 264 257 270 241 231 222 223 236 251 268 292 277 33 223 155 148 141 137 125 97 58 23 359 348 345 343 342 341 343 345 343 345 348 352 353 353 359 1 356 353 354
214 232 284 296 304 251 242 246 240 224 236 246 262 261 264 114 137 147 149 141 126 105 77 39 11 357 351 348 348 347 348 347 351 354 354 2 9 6 9 6 9 4 9 11
242 230 204 240 255 279 249 238 219 218 222 232 250 279 125 158 156 147 142 133 117 100 65 27 9 359 355 354 353 354 351 355 1 3 16 20 17 16 12 12 16 18 20 19
230 225 231 238 197 232 294 360 207 224 226 228 228 205 178 144 128 126 128 127 115 91 52 23 8 1 358 357 359 1 8 12 20 36 29 24 21 9 24 27 26 27 28 31
215 229 251 243 233 250 141 164 182 196 222 217 210 161 135 143 131 105 109 112 101 79 51 23 5 7 6 5 5 23 28 34 40 35 20 8 3 11 37 34 31 32 30 33
179 191 215 232 263 277 251 171 191 206 233 191 187 162 160 166 200 127 132 115 95 70 39 23 20 19 23 25 41 41 45 42 38 12 5 9 30 14 16 11 15 30 25 32
221 242 241 235 239 262 45 147 167 207 101 156 168 163 166 170 83 134 132 116 95 70 53 42 38 44 54 60 54 48 31 19 10 7 13 16 17 9 10 12 16 16 18 31
244 219 217 233 221 236 4 197 198 357 290 154 163 158 130 123 122 127 128 116 102 85 61 59 63 73 64 55 44 31 19 12 11 9 15 17 18 17 15 17 19 16 15 14
231 226 189 208 228 283 333 310 300 27 19 186 163 148 142 134 132 136 131 118 105 92 82 85 89 80 70 55 38 22 11 15 21 15 16 11 10 12 18 19 19 21 19 18
213 195 235 214 229 231 246 270 297 238 277 180 151 143 140 136 138 137 131 120 112 104 106 104 93 84 70 48 32 17 12 17 20 19 14 11 8 14 13 21 22 18 21 22
21 172 247 255 261 205 220 222 222 197 197 158 145 138 136 137 138 139 135 127 127 126 124 114 102 85 74 42 20 10 16 18 20 18 19 18 16 16 19 11 17 29 26 27
227 255 260 273 353 159 292 187 173 164 157 151 139 134 133 136 139 139 135 134 138 140 136 121 106 85 50 21 8 4 15 17 20 17 18 14 17 20 23 28 16 10 18 28